Showing default

FLOCK 4BE 34, 60495

Orbit data source: Space-Track

FLOCK 4BE 34, 60495 is a payload satellite owned by Planet (US) in SSO that was launched on Fri, 16 Aug 2024 UTC via an FALCON 9 launch vehicle from the Air Force Western Test Range (AFWTR). Payload-class satellites include a variety of spacecraft equipped with specific instruments for various scientific and technological missions. These include communications satellites like Starlink; space stations such as the ISS; scientific satellites like the Hubble; Earth observation satellites from companies like Planet Labs, Umbra, and HawkEye 360; GPS; miniature CubeSats for education and research; and military/defense satellites.

Loading next visibility...
Identifier
60495, 2024-149AD
Orbit
SSO
Country
Flag of USUS
Related business
Manufacturer
Planet
Mission
Operational Commercial Imaging
Bus & Motor
CUBESAT 3U, Unknown motor
Mass
5.7 kg wet, 5.7 kg dry
Launch date (UTC)
2024-08-16 (1 year ago)
Launch vehicle
FALCON 9
Launch site
Air Force Western Test Range (AFWTR)
Object type
Payload
Rocket body
Debris
Shape & HBR
Box + 2 Pan, 1.0 m
Radar Cross Section
0.072 m², Medium (>0.1 m² and < 1m²)

Expand to show TLE details & history
Last TLE update: 5 hours ago

TLE from 5 hours ago
0 FLOCK 4BE 34
1 60495U 24149AD  26036.17258510  .00022301  00000-0  62146-3 0  9990
2 60495  97.3878 119.6003 0004218  50.9151 309.2468 15.36786662 82028
Epoch: 2026-02-05T04:08Z
TLE epoch observation values (Epoch: 2026-02-05T04:08:31.352Z)
Latitude
-0.00002°
Longitude
-77.85895°
Altitude
456.909 km
Speed
7.639 km/s
True Right ascension
07h 58m 24s
True Declination
0° 00' 00"
Sunlit
Object was in full shadow at epoch
Visualization orbit readout
Latitude
Unknown
Longitude
Unknown
Altitude
Unknown
Speed
Unknown
Apparent Right ascension
Unknown
Apparent Declination
Unknown
Sunlit
N/A
Visualization observer readout
Local Sidereal Time
10:48:18
Azimuth
Unknown
Elevation
Unknown
Doppler factor
Unknown
Orbital elements
Apogee altitude
455.443 km
Perigee altitude
449.68 km
Semi-major axis
6,830.698 km
Eccentricity
0.00042
Inclination
97.3878°
RAAN
119.6003°
Arg. of periapsis
50.9151°
True anomaly
309.20936°
Mean anomaly
309.2468°
Eccentric anomaly
309.22808°
Mean motion
3.84455 °/min
Orbital period
93.64 mins
BSTAR
0.00062146
Loading maneuver chart data...
Computing Atmospheric mass density...
Loading historical data...
Loading historical data...
Loading historical data...
Loading historical data...
Loading historical data...
Loading historical data...
Loading historical data...

Documentation

Showing up to 5 results
|